Wind_Speed
25 24 24 27 27 27 27 27 27 26 26 25 25 25 26 26 27 28 28 28 29 29 28 27 26 26 25 25 24 22 21 23 23 22 21 21 20 21 20 19 19 19 19 19 21 22 22 22 22 23 22 22 21 21 20 20 20 20 19 19 19 19 19 17 18 19 18 18 18 18 19 18 17 18 18 19 19 19 20 21 21 21 21 20 20
27 25 25 27 28 28 27 27 27 27 26 26 25 25 27 27 28 28 28 27 26 26 25 24 24 24 24 25 23 22 22 22 22 20 20 21 21 21 21 20 19 20 20 21 22 22 22 21 22 23 22 22 21 21 20 21 21 20 19 19 18 17 17 17 19 20 19 18 19 19 19 19 18 18 18 19 19 20 19 21 21 20 20 20 21
26 25 25 27 28 28 28 28 28 28 27 26 26 26 26 27 28 27 26 26 25 24 24 23 24 23 23 23 23 23 23 21 20 20 20 21 22 21 20 20 20 21 21 22 23 22 21 22 23 22 22 22 21 20 20 22 22 20 19 19 17 15 17 18 19 20 19 19 20 20 20 19 18 18 18 19 19 20 20 20 22 20 20 21 21
24 25 25 26 27 28 27 27 28 27 27 26 25 25 24 25 26 26 25 25 24 23 23 24 23 23 21 22 23 23 22 21 21 21 21 22 21 21 21 21 22 22 22 23 22 21 21 21 21 21 22 21 20 20 20 20 21 20 19 18 18 16 17 18 19 20 19 19 20 19 19 19 18 18 17 18 19 19 19 20 22 21 21 21 20
24 25 25 24 24 27 27 27 27 27 27 26 26 25 24 24 24 25 25 24 24 24 24 23 23 22 21 22 23 23 23 22 22 21 22 22 21 20 21 22 22 22 22 22 21 21 21 20 20 20 20 19 19 19 18 18 18 18 18 17 18 18 18 17 17 18 18 18 20 19 17 17 17 18 16 16 18 18 17 19 20 19 19 19 19
24 24 25 24 22 24 26 27 26 27 26 26 26 25 24 23 24 24 25 24 24 23 23 23 22 20 21 23 23 23 23 23 23 22 22 22 21 20 20 21 21 21 22 21 20 20 20 19 20 19 18 18 17 17 16 15 15 15 16 16 16 18 18 17 16 16 17 17 18 17 16 16 15 16 15 15 15 14 14 16 17 17 17 16 17
23 24 25 23 22 24 27 27 26 27 26 26 26 26 25 24 24 24 24 23 23 22 22 21 21 20 21 24 24 23 23 22 22 23 24 23 22 21 20 20 21 21 21 20 19 19 18 18 18 18 17 16 16 15 14 13 14 14 14 14 14 15 17 17 16 16 16 15 15 15 14 14 14 13 13 14 13 12 13 13 14 14 15 15 15
21 23 24 22 22 25 27 26 27 27 25 25 24 24 24 24 24 24 24 23 23 22 22 22 22 22 22 22 22 22 22 22 22 24 25 23 22 22 21 21 21 21 20 19 18 18 18 17 17 17 16 15 15 14 13 12 13 13 12 12 14 14 15 16 17 17 16 14 14 14 14 13 12 12 12 13 13 13 13 13 13 13 13 15 15
21 23 23 22 23 26 27 26 27 26 25 25 23 23 22 22 23 23 24 23 23 22 23 23 23 23 22 21 22 22 22 22 22 23 23 22 22 21 20 21 22 21 19 18 18 18 17 17 17 16 15 15 14 13 12 12 12 12 10 10 13 14 14 14 17 16 14 13 13 12 12 12 11 11 11 11 12 12 12 13 12 13 13 14 14
21 21 23 22 24 27 26 26 26 26 26 25 23 22 21 22 22 22 23 23 23 23 23 22 21 21 19 19 20 21 22 23 23 21 20 21 21 20 20 20 20 19 18 18 18 18 18 17 17 15 15 15 14 13 12 12 12 11 10 10 13 15 14 15 16 14 14 14 14 13 13 12 11 11 10 10 11 11 12 12 12 13 13 13 13
19 20 22 22 25 27 27 27 26 26 25 24 23 22 22 22 22 22 22 23 24 24 23 21 21 19 18 19 20 21 22 22 20 19 19 20 20 20 20 19 19 18 18 18 17 17 17 17 17 16 16 15 13 13 13 13 13 13 12 12 13 15 16 17 15 14 15 15 15 15 15 14 12 12 11 11 11 11 11 12 13 13 11 12 13
19 20 22 22 25 27 27 27 26 26 25 24 24 23 23 22 21 21 22 23 25 24 22 21 21 20 19 19 19 19 20 19 18 17 18 19 19 20 20 19 18 18 18 18 17 16 16 16 17 17 15 13 13 13 14 15 15 15 14 14 15 15 17 18 15 14 14 14 15 14 14 14 14 14 13 12 12 12 12 12 13 12 11 12 12
20 19 22 23 24 26 27 26 27 27 25 25 24 23 23 22 21 21 21 23 23 21 20 20 20 21 21 19 18 18 18 17 17 16 17 18 17 18 20 19 18 18 17 17 17 16 16 16 16 16 14 13 12 13 14 16 16 15 15 15 16 16 16 18 15 13 14 14 14 14 13 14 14 14 13 13 13 13 14 13 13 12 12 13 12
22 19 22 23 22 25 26 25 27 27 25 25 24 23 22 21 21 21 22 22 22 20 19 19 20 21 20 19 19 18 17 17 17 16 16 17 16 16 18 18 17 17 16 16 16 16 16 16 15 15 13 13 12 12 14 16 16 15 15 15 15 16 16 17 15 13 13 14 14 14 14 14 14 13 13 13 13 14 14 13 13 12 12 13 13
24 22 22 22 22 24 24 25 26 26 25 25 24 22 21 20 20 21 21 21 20 19 19 19 19 20 19 19 19 18 17 16 16 15 15 15 15 16 16 17 17 16 15 16 16 16 16 16 15 14 13 13 12 12 14 15 16 15 15 15 14 15 16 16 14 13 13 13 13 13 13 14 15 14 13 12 13 13 13 13 13 13 13 13 13
22 23 21 21 22 22 22 23 25 25 25 24 23 22 21 20 20 21 21 21 20 19 19 19 19 18 18 18 18 18 16 15 14 14 14 14 15 15 15 15 16 16 16 15 16 16 15 15 14 13 13 13 13 12 13 15 15 15 14 14 13 13 15 15 13 12 12 12 12 12 13 14 15 13 13 12 12 13 13 13 13 13 13 13 13
20 20 20 21 22 22 22 22 23 23 24 23 22 21 20 19 19 20 19 20 20 20 19 19 18 18 18 18 18 17 15 14 14 14 14 14 15 15 15 14 14 15 15 15 16 16 15 13 13 12 12 13 14 12 12 14 15 14 14 13 12 12 14 16 14 12 12 11 11 11 12 13 14 13 13 12 12 13 13 13 13 13 13 13 13
19 18 20 21 22 22 22 23 23 21 22 21 21 20 19 18 19 19 19 20 20 19 19 18 18 18 18 17 16 15 14 14 14 14 14 15 15 15 14 15 14 14 14 14 15 15 14 12 12 11 12 13 14 13 11 13 14 14 13 12 12 11 13 15 14 12 12 12 11 11 11 13 14 13 13 13 12 12 12 12 13 13 13 13 13
18 18 20 20 22 21 22 23 22 22 23 21 19 19 18 18 19 19 19 20 20 19 18 18 17 17 16 16 15 14 14 14 14 14 14 15 15 14 14 15 14 13 13 13 13 13 13 12 11 11 11 12 13 13 11 11 13 14 13 12 11 11 12 13 12 12 11 11 10 10 12 14 13 13 12 12 12 12 12 12 13 13 13 13 13
17 18 19 19 22 21 22 24 22 23 23 21 19 18 18 18 19 20 20 20 19 19 18 17 17 17 16 16 15 15 15 14 13 13 14 14 15 14 13 13 13 13 13 13 13 12 13 12 11 11 11 11 12 13 11 10 12 14 13 12 11 11 11 11 12 12 11 11 11 11 13 13 12 12 12 12 12 12 12 13 13 12 12 12 13
17 19 19 20 23 22 22 24 24 24 22 21 20 18 17 18 19 19 19 18 18 19 18 17 17 17 16 17 16 17 16 15 14 13 14 14 14 13 12 12 12 12 12 12 12 12 13 12 11 10 11 11 12 12 11 9 11 14 14 12 11 10 10 11 12 11 12 12 11 11 13 12 12 12 11 11 12 11 11 12 11 12 12 12 12
18 20 21 20 22 23 22 23 24 23 22 21 21 19 17 18 18 18 18 18 18 18 18 17 18 18 17 17 16 17 17 16 15 14 14 13 12 11 12 12 12 11 11 11 11 11 11 11 11 10 10 11 11 12 12 10 11 14 14 12 11 10 10 11 11 11 11 11 10 11 12 11 11 12 11 11 11 10 11 11 11 11 11 11 10
19 19 21 22 22 23 21 22 22 22 21 21 21 19 18 18 18 18 17 16 17 17 17 17 18 17 18 17 17 16 16 16 15 14 14 13 11 11 11 11 11 10 10 11 10 10 10 10 10 10 10 11 11 12 12 10 11 13 14 12 10 9 10 10 10 10 10 10 10 11 11 10 11 11 11 10 10 10 10 10 10 10 10 10 10
19 18 20 22 23 23 22 22 21 21 22 21 20 19 18 18 18 18 16 16 17 16 17 18 17 17 18 17 16 16 15 15 15 14 13 12 11 10 11 11 10 9 9 10 9 9 9 9 9 9 10 10 11 12 13 11 10 12 14 12 10 9 9 10 10 10 10 10 10 10 10 10 10 11 11 10 9 9 9 9 10 9 10 10 11
18 19 21 22 23 24 23 23 21 21 21 21 20 18 18 18 19 19 17 16 16 16 16 17 16 16 17 16 16 16 15 15 15 13 11 11 11 10 10 10 9 8 8 9 9 9 9 8 8 9 9 10 11 12 12 12 12 14 15 13 11 9 9 9 10 10 10 10 10 10 9 9 9 10 11 10 8 8 8 9 9 9 10 10 10
18 20 22 22 23 24 22 23 21 20 20 20 19 18 19 19 19 19 16 17 17 16 15 15 15 14 16 16 16 16 14 15 14 11 10 10 10 9 9 10 9 9 8 8 9 9 9 9 8 8 9 10 11 12 11 12 14 16 16 14 11 10 9 9 10 9 9 9 10 9 8 8 9 9 10 9 8 7 8 9 9 9 10 9 9
19 20 21 21 24 23 20 22 21 20 20 19 18 18 19 20 20 18 17 18 18 17 14 13 14 14 16 17 16 14 14 13 12 11 10 9 9 9 10 10 9 9 8 8 8 8 8 8 8 8 8 9 10 12 11 11 14 16 15 14 11 10 9 9 9 9 9 9 9 8 7 7 8 9 9 9 9 7 8 9 9 9 9 9 9
21 22 22 21 25 22 20 21 20 20 19 17 17 19 20 21 19 16 17 18 18 17 14 13 14 15 16 15 14 13 13 12 11 10 9 9 9 9 9 9 9 8 8 8 8 7 7 7 7 7 8 9 10 11 12 11 13 15 15 13 11 10 9 9 9 9 9 10 10 8 7 7 7 8 9 9 9 9 9 9 8 8 8 8 8
22 24 24 22 23 21 20 21 20 20 18 17 19 21 21 21 19 15 15 17 17 17 15 14 15 16 15 13 14 13 13 12 10 9 9 10 10 8 7 8 8 8 7 7 7 6 6 5 6 6 6 9 11 12 12 12 12 14 14 13 11 10 9 9 9 8 8 10 10 9 8 7 6 7 9 9 10 11 10 9 8 8 8 9 9
23 24 24 23 22 21 21 21 21 19 17 20 21 23 23 20 18 15 13 15 17 17 16 17 16 16 15 13 13 13 12 11 10 9 10 12 11 9 8 7 7 7 7 7 7 6 5 5 5 5 6 8 13 14 14 13 13 13 13 13 12 11 10 9 9 8 8 9 9 9 8 6 5 6 8 8 9 10 10 9 8 8 9 9 9
19 22 24 23 23 21 21 21 20 17 15 20 23 23 22 17 15 13 13 16 17 17 18 18 15 13 13 14 13 12 11 11 10 10 11 12 12 10 8 7 6 6 7 6 6 6 6 5 5 5 6 7 12 15 15 14 13 13 13 13 12 11 10 9 9 8 8 8 8 8 7 6 6 6 8 8 8 9 9 8 8 8 8 8 7
13 17 23 22 22 21 18 19 19 15 15 20 23 23 19 14 13 12 14 18 17 17 18 16 14 13 14 14 12 10 10 10 10 10 11 12 10 9 8 7 6 6 6 5 5 6 6 6 5 6 6 8 11 14 14 14 12 12 11 11 10 9 8 8 9 9 8 8 8 8 7 6 7 7 8 8 7 7 8 8 8 8 8 8 8
13 12 20 18 18 20 16 16 18 15 16 21 23 23 17 12 12 13 16 18 16 16 16 15 15 15 14 13 11 9 9 9 10 10 10 10 9 8 7 6 6 6 5 5 5 6 7 6 6 6 6 8 12 13 13 12 10 8 8 7 7 8 7 8 10 10 9 8 8 8 7 7 7 7 9 9 6 5 6 8 8 8 9 8 8
12 8 19 16 14 20 16 13 15 14 16 20 23 22 17 14 14 15 18 17 13 13 15 16 15 15 13 12 10 9 10 10 11 11 10 9 8 7 6 6 7 6 5 5 5 7 7 7 7 7 7 8 11 12 11 9 7 7 7 6 7 8 8 9 10 10 10 8 7 6 7 6 6 7 9 9 6 4 4 7 9 10 9 8 7
9 7 18 19 15 19 18 13 12 13 15 18 22 22 18 16 17 17 18 16 14 15 16 15 14 14 12 11 10 10 11 11 10 10 10 9 8 7 6 6 7 6 5 6 6 7 7 8 8 7 7 7 8 8 7 7 6 6 6 6 7 7 9 10 9 10 10 10 9 7 6 5 6 6 8 8 7 6 5 7 9 9 8 6 5
11 7 12 18 19 19 20 18 13 13 15 16 18 21 19 17 18 18 16 16 16 16 16 15 13 12 11 10 9 11 11 10 9 9 9 9 8 8 7 7 7 6 5 6 6 7 8 8 9 8 6 6 6 7 6 6 6 6 6 6 6 7 9 9 8 8 8 9 10 8 6 5 5 6 6 7 6 6 6 6 7 6 5 4 3
16 14 12 17 20 19 22 21 18 18 19 17 16 20 20 17 17 17 14 14 16 15 15 14 13 11 10 10 10 10 10 9 8 8 9 9 8 9 8 8 8 7 6 6 6 7 8 9 9 7 5 6 7 7 6 6 6 6 6 6 7 9 9 8 8 8 8 8 9 9 8 7 6 5 5 6 5 5 5 4 4 3 3 2 2
23 25 23 24 24 22 24 24 23 22 21 19 17 20 20 16 15 15 12 12 14 14 14 12 11 11 11 11 10 10 9 8 8 8 8 9 9 9 9 9 9 8 7 6 6 8 9 8 9 7 5 6 7 7 7 7 7 6 7 8 9 9 9 8 8 8 8 8 7 8 8 7 7 6 6 6 5 4 4 3 2 1 1 2 2
28 33 31 31 32 30 28 27 25 23 21 19 18 20 19 14 13 12 10 10 12 13 13 11 10 10 12 12 10 10 9 8 9 9 9 9 9 10 10 10 10 8 8 7 7 8 9 8 8 7 6 6 6 7 8 9 8 7 8 9 9 8 7 8 9 9 8 7 8 9 8 8 8 7 6 6 5 3 2 2 1 0 1 2 2
23 35 38 37 34 33 30 27 27 24 21 20 20 21 18 14 13 12 11 10 11 12 11 11 10 10 12 12 11 11 9 9 9 9 9 9 8 10 10 9 10 9 9 8 8 8 10 9 8 7 8 8 7 7 9 11 10 9 9 10 9 6 5 7 9 9 8 7 8 9 8 8 8 8 8 7 5 3 2 3 2 1 1 2 2
11 20 30 31 26 27 28 26 27 25 22 22 22 21 19 16 15 13 12 11 11 11 11 11 11 11 12 12 11 10 9 9 10 9 9 8 8 9 8 8 9 9 9 8 8 8 9 9 8 8 8 9 9 8 10 12 12 11 11 11 10 6 5 8 9 9 8 8 9 9 9 9 8 8 8 7 5 3 3 4 3 3 4 4 4
8 9 19 23 20 25 27 25 26 24 23 22 22 21 18 16 15 13 12 12 11 11 11 11 11 12 12 11 10 10 10 10 10 9 8 7 7 8 7 7 8 8 8 8 7 8 8 9 8 8 8 8 9 11 12 11 10 11 10 10 9 8 7 9 8 7 8 8 8 9 9 8 8 8 7 6 5 4 4 4 4 4 5 4 3
9 10 19 24 23 26 26 24 24 23 22 20 20 18 15 14 13 12 12 11 11 11 11 11 11 12 12 10 10 10 10 10 9 9 8 7 7 7 7 7 8 8 8 8 7 7 7 8 8 8 8 9 9 11 12 8 8 11 10 7 5 5 7 7 7 6 5 7 8 9 8 7 8 8 7 6 5 5 4 4 5 5 5 4 5
13 14 20 25 27 27 25 25 25 25 24 21 19 16 14 14 12 11 11 10 10 11 11 12 11 12 12 10 10 10 9 9 8 8 7 6 6 6 7 7 7 7 7 7 7 7 7 8 8 8 9 10 10 10 8 6 9 10 6 4 4 4 3 4 6 7 5 5 6 7 7 7 7 7 8 7 5 5 5 6 6 5 6 7 8
16 17 21 25 29 28 24 24 25 26 25 22 20 16 15 15 13 12 12 10 11 11 12 13 13 13 12 10 10 9 9 8 7 7 7 6 5 5 6 6 6 7 6 6 6 6 7 8 8 8 9 10 10 11 8 6 10 9 4 3 3 2 3 6 7 5 5 5 5 5 6 6 7 8 8 7 6 7 7 7 6 7 8 9 10
16 17 21 24 27 27 24 24 24 24 24 23 20 17 17 17 15 15 14 13 13 13 15 16 15 14 12 11 10 9 8 7 7 7 7 6 6 6 6 6 6 6 5 5 6 5 7 8 8 8 9 9 9 11 10 8 9 7 5 3 1 1 7 10 6 4 5 5 6 6 6 6 7 8 9 9 10 10 9 7 7 8 9 9 10
17 18 20 22 24 25 25 25 25 24 24 23 21 19 18 17 16 15 15 15 15 14 15 16 15 14 12 12 11 10 9 8 8 7 7 7 7 7 6 5 6 5 4 5 6 5 6 7 7 8 8 8 9 10 11 11 9 6 5 2 1 3 10 10 7 6 5 4 5 7 8 9 10 9 10 12 12 10 8 8 8 9 9 9 9
18 19 19 21 24 25 26 26 26 25 25 25 23 22 20 17 15 15 15 16 17 15 15 16 15 15 15 14 12 11 10 9 9 8 7 7 8 7 7 6 5 5 4 5 5 5 5 6 6 7 7 8 8 8 10 11 10 7 5 2 2 6 8 7 8 8 7 5 5 6 9 11 12 11 11 11 11 9 8 9 9 9 10 10 10
19 21 20 21 23 25 26 26 27 26 26 26 25 23 21 17 14 16 18 18 19 18 17 17 17 17 17 16 14 13 11 10 10 10 9 8 8 7 7 7 6 5 5 4 4 4 5 5 5 7 7 7 7 7 7 9 9 7 7 4 4 7 6 4 7 8 7 8 6 5 8 10 11 10 11 11 10 9 9 10 10 10 10 10 11
18 21 21 22 23 24 25 25 26 27 26 27 26 23 20 17 17 21 22 21 21 21 19 18 18 18 17 16 15 14 12 11 10 11 10 8 8 8 7 7 6 6 6 5 5 5 5 5 5 6 6 7 7 7 7 7 8 8 8 7 6 7 6 5 8 8 7 8 7 8 10 10 10 8 7 9 9 9 10 10 11 10 10 10 10
18 20 23 26 25 24 25 23 24 26 25 25 24 21 18 19 21 24 25 24 23 22 20 20 19 18 18 17 16 14 12 11 10 10 9 9 8 8 7 6 6 7 6 5 5 5 6 6 6 6 6 7 7 8 7 6 7 9 9 9 7 8 7 6 8 10 8 8 9 10 11 11 10 8 6 8 8 9 9 10 10 10 10 9 9
Wind_Direction
159 154 156 157 151 148 148 145 145 143 140 139 137 136 138 139 143 147 146 145 145 145 142 140 138 139 138 139 139 137 138 135 133 133 131 130 128 127 126 126 125 124 122 120 117 117 117 115 114 111 109 107 106 103 97 94 96 96 94 92 97 101 97 91 83 85 93 95 96 97 97 96 91 86 81 80 81 86 94 94 91 92 90 89 92
153 151 154 155 151 149 148 146 145 142 140 138 136 135 138 141 141 142 142 140 139 139 137 137 138 138 138 139 138 136 136 134 134 133 132 130 129 128 128 128 127 125 123 122 121 120 119 117 115 113 110 109 107 105 101 94 94 96 98 98 100 103 105 102 90 85 89 96 98 97 96 94 90 87 84 82 82 85 91 92 88 86 89 90 87
146 149 150 153 151 149 148 147 145 142 140 138 138 136 137 140 141 139 139 139 138 137 137 138 137 136 137 139 137 135 135 135 135 133 132 130 129 129 128 127 126 125 124 124 122 121 120 118 115 114 112 111 108 105 103 96 92 93 97 101 101 105 115 110 99 93 90 94 98 95 94 93 90 88 85 83 82 84 90 91 90 89 90 90 87
144 148 148 151 150 149 149 147 145 142 140 139 139 136 135 138 140 139 138 139 138 138 139 139 137 137 139 140 138 135 135 135 134 133 132 131 131 131 130 128 126 126 126 125 123 123 122 119 116 116 114 113 109 105 104 97 91 89 91 97 99 105 119 116 105 101 97 96 95 94 95 94 89 86 86 84 79 80 86 86 89 93 91 89 88
145 146 146 147 147 148 148 147 144 141 139 139 140 136 133 135 138 140 140 140 140 140 141 141 139 140 142 140 137 136 136 135 134 133 132 132 131 131 130 128 127 126 125 125 124 125 123 119 117 117 116 115 110 107 105 97 91 88 89 95 100 104 116 120 115 108 103 99 94 95 97 96 90 84 84 83 79 78 80 80 81 84 84 84 85
144 145 146 144 144 146 147 147 144 140 138 139 141 139 135 136 138 139 141 142 142 143 142 142 141 143 145 141 139 139 139 136 133 132 131 130 129 129 129 127 126 126 126 127 126 125 122 120 118 117 116 114 111 110 109 101 92 88 89 94 101 104 106 114 122 118 111 101 92 96 99 99 94 85 84 80 80 83 82 81 79 80 79 76 76
143 146 146 143 143 146 146 147 145 141 139 140 141 141 140 140 142 141 141 141 141 142 143 143 142 144 145 141 140 141 142 138 132 131 131 130 129 130 130 127 127 129 129 128 126 125 124 121 119 116 115 113 112 112 112 107 99 94 90 94 101 105 103 105 117 127 121 103 93 99 101 101 97 88 87 83 81 83 83 83 80 81 80 73 71
143 148 146 143 145 147 147 147 146 143 140 141 141 140 139 139 143 145 144 143 142 142 143 143 142 142 141 140 141 142 144 140 133 131 131 131 131 132 132 129 130 132 130 127 127 127 125 122 120 117 116 114 115 116 115 112 108 103 98 95 99 105 107 107 114 124 119 102 96 101 102 101 99 94 89 86 83 81 82 82 76 75 77 74 73
145 148 146 143 146 148 149 149 147 144 141 141 141 140 138 137 138 142 144 146 145 144 145 143 143 144 144 145 146 146 145 139 132 130 130 132 134 135 134 131 133 132 129 130 131 129 127 125 121 119 118 119 120 118 113 109 108 110 109 100 98 104 108 114 118 114 105 98 98 100 102 100 98 96 88 86 86 81 81 83 80 74 73 76 77
145 148 148 144 147 149 150 151 148 144 142 142 142 141 139 138 137 139 144 146 147 147 148 147 146 146 146 147 147 145 140 134 130 129 130 132 135 135 133 133 135 133 132 135 133 132 130 126 123 122 123 123 121 113 105 103 108 115 117 107 101 103 108 121 121 107 98 98 97 96 99 98 95 94 91 91 91 84 81 86 87 79 76 79 79
144 148 148 146 150 152 152 152 148 144 144 144 143 142 140 138 141 144 146 148 147 146 147 149 149 146 142 141 142 140 136 133 131 131 133 134 135 135 133 135 136 134 137 138 136 134 130 128 127 127 125 122 115 106 102 104 110 116 117 112 104 102 109 119 117 105 101 100 98 97 95 92 92 93 95 94 91 85 82 86 85 80 78 78 78
146 149 150 149 153 154 153 152 149 146 145 146 144 143 142 141 143 145 146 148 146 143 145 149 150 148 144 141 141 140 136 134 131 133 135 137 136 135 137 139 137 138 141 141 138 135 133 133 131 129 124 118 112 107 107 109 111 113 113 112 106 104 110 115 114 108 104 102 102 101 96 91 92 94 94 93 91 87 85 86 87 85 81 80 81
147 149 152 152 155 156 155 152 149 148 147 148 147 145 144 144 145 145 145 145 145 145 149 152 153 151 147 144 145 144 140 136 135 137 141 142 137 133 139 142 140 141 142 143 142 137 134 133 131 129 125 119 114 110 110 113 113 111 111 111 107 106 110 113 113 111 108 105 103 103 100 96 96 96 94 91 91 88 87 87 89 88 83 82 80
149 151 155 154 156 157 155 151 150 150 149 149 147 146 146 147 149 149 147 146 147 149 152 153 155 152 147 145 147 147 144 143 143 144 145 145 143 136 137 142 145 144 142 143 144 138 135 135 134 132 127 121 117 113 113 116 117 113 110 110 108 106 109 112 113 112 111 108 104 102 99 99 98 97 95 92 92 91 90 90 89 86 85 84 78
152 153 156 155 155 156 154 152 152 152 150 149 148 148 148 150 154 153 150 149 149 150 152 152 153 152 147 147 148 147 146 146 145 146 147 145 146 142 135 139 145 148 144 142 143 141 142 142 138 134 129 124 120 115 115 119 121 116 110 109 108 106 108 113 113 112 113 111 106 101 100 100 97 96 97 95 94 93 92 90 87 85 85 85 80
152 152 154 155 154 155 155 153 154 153 150 151 150 150 151 154 157 157 155 152 150 150 151 151 153 152 148 148 148 148 147 145 144 146 147 142 144 145 140 138 142 145 144 144 144 143 144 144 141 137 132 127 124 119 118 121 124 120 114 110 109 105 105 111 114 112 113 113 108 103 101 102 103 102 99 95 93 92 92 91 89 89 89 89 86
151 152 152 154 156 155 155 155 156 154 152 153 152 153 154 159 160 160 160 154 151 151 151 152 152 149 148 148 148 148 147 144 144 146 144 140 141 143 144 142 140 143 145 145 146 146 147 145 142 138 133 129 127 123 122 125 127 125 119 113 111 107 102 106 111 112 112 114 111 104 102 109 113 108 100 97 93 92 93 93 93 92 91 91 88
152 153 153 154 156 155 156 158 158 155 155 155 154 156 158 162 163 162 162 156 151 151 151 151 149 148 147 148 148 147 145 144 145 146 143 140 139 138 141 140 137 139 142 143 145 148 151 148 144 139 134 130 128 126 125 127 129 129 125 119 114 110 101 102 107 111 112 112 111 104 104 110 110 106 102 100 96 94 93 94 94 91 91 90 87
153 155 155 156 157 158 160 159 157 158 159 158 157 160 163 163 163 162 162 157 152 152 152 149 149 149 147 147 148 148 146 146 145 145 144 142 138 136 138 139 138 139 139 143 146 149 153 153 149 143 137 132 130 128 126 127 131 134 131 126 120 113 104 103 108 110 111 111 107 105 110 111 109 107 104 101 98 95 93 93 94 93 93 93 92
155 157 158 160 161 162 164 161 158 161 162 160 159 160 165 165 162 161 159 155 153 154 152 151 152 150 149 150 150 149 147 144 143 144 144 141 137 135 138 138 139 141 142 147 150 153 158 159 155 147 141 136 133 130 129 128 133 138 136 132 126 117 110 110 113 109 109 110 106 108 113 111 108 107 105 103 99 96 96 94 94 96 94 93 95
160 163 164 164 165 166 167 165 164 165 163 162 160 159 164 164 160 158 156 155 155 154 152 154 154 152 152 152 151 147 145 142 139 140 140 140 137 137 141 138 137 142 145 151 156 160 162 163 160 153 147 142 138 134 132 131 135 140 141 137 131 124 118 115 113 108 107 105 103 112 116 113 111 109 105 103 99 97 96 94 96 98 95 95 98
163 167 168 168 169 169 168 168 168 167 165 164 161 158 163 164 159 158 158 157 156 153 152 154 155 156 155 152 151 147 144 141 138 138 138 138 138 140 143 138 136 139 142 149 156 161 164 166 168 164 153 146 142 137 137 138 139 143 143 139 137 133 123 116 112 108 106 103 103 113 116 116 115 111 105 102 100 97 95 95 95 95 97 97 100
166 169 170 172 173 171 169 168 168 168 164 163 162 160 164 163 160 161 158 154 154 153 154 155 157 158 158 156 152 146 142 140 139 138 137 137 140 146 147 140 135 135 136 142 149 156 163 168 171 169 157 149 146 141 142 142 143 147 146 144 145 140 125 117 113 108 104 103 107 114 114 109 104 102 106 107 102 97 97 100 97 95 98 97 95
168 169 170 174 175 174 172 169 167 168 166 164 164 163 165 165 162 161 154 151 151 153 157 159 161 160 161 159 149 142 140 138 138 138 138 139 141 145 143 137 132 130 132 134 135 141 149 159 165 165 156 151 150 146 146 144 145 151 150 152 153 142 128 121 117 111 106 104 109 114 113 109 99 91 93 99 100 101 102 102 100 97 96 94 93
168 169 171 175 177 177 175 172 168 168 168 167 165 165 167 165 164 162 154 153 152 152 159 161 160 161 160 156 146 141 141 140 139 139 142 141 136 136 136 134 131 124 122 123 123 123 127 138 146 152 153 151 151 150 150 149 149 152 153 155 156 145 132 127 122 115 109 109 113 113 109 111 109 91 82 85 91 100 104 102 102 100 97 95 95
169 170 173 177 180 179 177 174 170 169 168 168 166 166 167 167 166 162 155 156 157 155 156 158 156 157 157 154 149 144 142 142 140 138 139 137 132 134 135 135 133 124 117 116 118 118 118 122 129 141 147 146 150 150 150 153 153 151 153 156 156 148 138 132 126 118 110 112 118 118 114 112 110 99 84 77 79 94 105 106 106 101 97 95 94
170 173 174 177 179 177 175 174 171 170 170 168 167 165 168 170 167 162 161 162 163 159 152 153 154 153 154 153 152 148 145 143 139 137 136 135 136 138 137 134 131 126 121 118 119 120 119 118 123 132 140 143 146 148 148 151 154 153 154 158 157 150 144 137 130 122 116 117 122 124 121 110 108 108 94 76 75 90 101 102 104 100 96 97 95
169 174 174 175 178 176 173 172 172 172 170 166 166 167 169 171 167 163 166 167 165 161 155 152 152 154 154 154 156 153 149 144 139 139 135 136 140 139 137 134 132 128 126 126 126 127 125 122 122 125 137 147 145 147 149 147 152 156 155 156 156 155 151 141 135 130 124 123 124 125 120 107 104 108 98 82 75 86 97 97 99 100 103 104 99
173 175 175 174 175 174 174 173 173 172 167 165 167 167 169 172 170 166 167 170 167 162 158 155 153 156 157 158 161 158 152 144 139 139 137 142 144 142 140 137 136 133 131 134 138 139 136 129 120 117 127 149 153 152 154 149 148 156 158 157 157 160 157 147 141 135 131 128 126 123 116 107 106 104 103 96 83 85 93 100 103 103 104 100 93
179 173 172 174 173 173 173 173 172 169 164 170 173 171 173 175 172 169 169 168 166 160 157 157 155 157 158 160 163 161 155 145 141 140 143 147 148 149 147 144 140 137 136 138 146 149 148 142 125 112 107 141 159 158 158 156 152 156 161 162 163 166 164 155 148 140 133 129 126 124 117 109 99 98 109 108 93 88 88 95 101 100 98 93 91
182 175 173 176 174 172 170 171 170 162 164 174 176 175 176 175 169 170 171 165 163 160 158 159 156 156 159 161 160 160 156 146 143 144 148 151 151 153 150 143 137 139 142 135 147 154 156 156 136 119 106 128 156 161 161 159 157 159 163 169 170 171 169 162 153 143 135 133 133 132 129 118 95 92 109 105 95 99 93 87 91 95 97 96 96
183 183 178 177 175 173 166 167 170 164 172 178 176 178 177 170 171 171 167 163 164 163 161 159 158 158 160 162 159 157 157 150 147 149 152 154 153 154 150 143 131 134 144 133 139 152 156 162 149 131 114 120 144 157 160 157 154 155 161 168 165 163 164 164 160 151 144 142 140 139 141 130 103 97 107 101 95 103 95 86 94 106 106 103 101
198 194 177 173 170 172 165 162 172 174 178 180 178 180 177 170 174 170 165 165 166 166 162 160 159 160 162 164 163 158 157 157 157 156 156 156 153 154 153 152 141 131 138 132 130 144 151 158 155 139 123 122 136 149 157 152 143 140 147 151 151 159 162 160 161 158 152 146 141 141 147 138 116 109 110 109 106 99 86 87 100 112 111 106 99
200 183 162 156 148 160 168 164 171 179 178 182 183 182 179 175 174 168 168 168 167 166 163 162 160 160 162 164 165 164 163 164 166 166 161 159 158 161 163 165 158 146 142 135 130 140 148 157 155 145 135 130 133 142 149 142 131 130 137 144 155 165 163 157 158 158 155 152 149 145 144 135 124 120 117 116 116 105 99 107 111 111 113 114 103
199 169 151 157 156 160 176 178 176 185 181 183 187 186 184 181 176 171 171 171 167 166 163 162 161 161 162 160 164 169 170 169 172 174 169 165 165 170 173 171 166 160 154 138 133 141 150 159 156 150 143 130 127 133 135 132 128 132 139 150 157 161 160 158 158 157 158 161 160 151 143 135 123 125 127 121 114 115 126 132 127 117 114 119 117
203 179 152 171 181 175 183 185 184 192 186 186 188 189 190 185 179 174 171 171 168 164 161 161 161 163 164 164 166 169 173 174 175 178 176 171 169 173 176 174 171 168 161 142 136 143 152 158 155 156 147 126 126 128 128 132 129 131 139 142 141 147 155 156 156 154 158 168 167 158 155 155 133 124 129 119 108 118 130 131 124 115 105 104 102
193 187 188 192 188 181 185 185 184 189 188 187 186 190 192 185 180 176 169 167 166 162 160 161 163 167 171 171 169 169 173 176 177 179 179 178 177 178 179 178 176 175 171 153 145 148 153 158 154 158 148 128 129 126 127 131 129 133 132 126 128 141 152 154 159 156 154 164 167 161 162 171 158 131 127 127 117 119 127 127 118 109 93 70 42
188 198 202 199 191 186 189 187 184 185 185 185 184 189 190 184 181 177 165 161 164 164 163 163 165 171 174 173 170 171 174 177 181 181 181 184 187 187 186 188 184 182 179 167 160 156 156 159 155 155 147 136 135 130 131 131 129 130 122 120 126 142 158 155 156 160 159 162 163 159 159 168 164 141 136 145 136 116 118 130 120 92 34 13 355
181 194 198 198 193 188 189 187 183 181 181 181 181 187 186 180 177 171 163 161 163 165 167 166 166 171 173 172 174 178 180 183 184 183 183 186 194 194 192 194 192 189 187 179 172 166 161 160 155 149 136 131 137 135 134 130 128 125 118 116 120 142 166 155 159 168 163 161 163 164 163 168 168 155 153 156 151 137 137 172 171 235 344 360 5
177 186 192 195 192 186 183 183 182 179 178 178 179 183 181 177 172 167 167 165 163 166 168 167 167 171 174 174 178 181 181 182 182 183 186 190 197 197 194 194 193 192 191 187 183 177 168 162 154 146 134 124 129 134 135 131 125 117 110 107 112 137 154 142 161 170 163 164 168 172 174 174 173 170 173 167 162 167 169 180 190 183 73 58 58
169 182 188 190 187 180 179 181 182 179 176 176 178 180 179 176 173 171 173 171 168 168 168 170 170 173 173 173 176 178 177 177 179 180 186 193 197 199 197 192 189 188 190 191 190 183 172 165 155 149 140 130 131 137 138 133 127 123 112 99 96 105 127 142 159 163 162 168 171 179 182 180 177 179 183 177 175 179 146 143 152 143 105 89 77
165 181 184 185 181 175 180 184 183 182 180 177 178 179 180 177 173 173 175 173 173 172 171 172 172 170 169 170 173 174 175 173 172 175 181 191 197 202 205 196 190 188 190 193 192 184 176 170 160 151 146 139 139 145 144 135 133 138 130 111 97 90 109 134 148 157 168 172 175 182 182 182 181 181 183 181 180 173 148 134 133 126 103 92 92
160 173 179 183 180 176 181 182 180 184 184 179 179 179 180 180 177 175 172 170 174 174 171 170 170 168 166 168 171 170 170 166 165 170 175 186 198 207 210 201 191 188 191 194 196 189 180 175 168 158 148 141 144 154 153 143 143 145 141 133 120 108 108 116 118 126 161 181 188 189 182 181 180 178 179 176 170 161 148 133 128 119 101 96 106
159 168 176 177 178 178 179 177 178 184 185 183 182 179 177 178 176 171 166 162 166 167 165 167 168 168 166 167 169 166 163 163 165 168 170 182 200 210 209 201 187 185 189 192 195 192 182 175 172 166 156 145 151 167 168 158 158 153 142 130 139 155 141 119 112 94 106 153 178 191 194 191 180 173 178 181 171 153 145 138 127 113 103 102 104
164 167 177 176 177 178 175 173 176 181 184 185 183 176 171 171 165 159 159 155 155 159 163 167 170 171 170 167 165 161 158 158 162 167 170 180 196 204 202 194 180 180 186 188 188 186 183 180 174 174 172 161 161 173 179 175 172 168 153 135 144 182 161 140 132 93 81 108 125 155 175 176 170 170 175 176 162 146 141 137 125 114 108 102 102
168 167 177 177 175 173 171 171 173 178 182 182 178 173 170 170 164 158 160 160 159 167 171 170 171 171 168 164 159 155 154 155 160 166 169 175 186 192 193 186 174 178 186 181 179 179 183 186 181 179 182 179 171 173 178 179 180 180 175 175 271 241 159 156 152 106 92 93 100 127 136 135 144 154 152 143 138 138 137 130 119 114 109 102 105
166 166 175 173 171 169 171 172 173 177 178 176 174 173 173 173 170 166 165 167 166 171 173 170 168 166 162 158 154 151 153 156 160 164 164 168 176 180 184 179 170 177 182 175 174 176 181 186 188 184 183 188 185 181 182 180 182 190 184 173 352 150 159 165 167 145 132 109 92 108 116 122 124 124 126 127 129 133 131 124 115 109 107 106 107
164 167 170 167 167 169 174 174 174 177 178 179 180 179 178 175 172 171 170 171 168 166 166 164 162 159 157 153 151 152 151 153 157 159 158 160 167 172 175 172 168 175 177 175 176 175 180 188 191 188 182 189 194 191 188 186 187 189 183 165 85 147 159 168 171 159 145 136 118 107 109 119 123 120 123 126 129 132 129 124 117 111 110 110 109
163 169 166 162 164 167 173 173 174 179 181 184 185 184 183 177 173 174 172 171 166 161 160 159 156 155 155 153 152 152 148 150 152 151 151 149 153 160 166 169 170 174 175 177 181 182 187 192 194 195 190 191 197 194 189 193 194 189 183 175 138 150 157 164 170 161 145 144 143 131 123 122 121 119 125 131 132 132 130 125 121 117 115 114 113
162 167 162 161 163 164 169 170 172 178 182 186 186 185 185 179 177 177 172 167 163 160 158 156 156 156 157 156 156 154 150 153 151 148 147 144 146 147 150 161 166 172 178 181 188 193 197 201 203 204 201 197 198 198 194 196 201 200 190 177 162 161 161 166 173 167 155 152 147 143 141 136 127 118 123 133 133 130 128 127 125 124 122 119 116
160 160 158 163 164 166 170 169 172 178 182 186 184 182 182 180 180 177 170 165 163 160 159 160 162 163 163 163 161 160 159 160 157 152 147 144 145 144 146 155 164 172 178 182 188 198 206 211 211 210 215 213 208 206 206 205 207 210 204 197 194 180 173 187 186 174 166 154 146 145 147 142 131 121 123 128 126 127 128 130 132 131 128 123 118
Height
779 782 785 787 788 789 791 791 793 794 795 796 797 799 801 802 803 804 805 806 807 809 809 811 812 813 814 816 817 818 819 820 821 822 822 823 823 824 825 826 826 827 828 829 829 830 830 831 832 832 832 833 833 833 833 833 834 834 833 833 833 833 833 833 833 832 832 833 833 834 834 835 835 835 835 836 836 836 836 836 836 836 837 838 837
777 782 784 786 788 789 790 791 793 794 795 796 798 800 802 803 804 806 807 808 809 810 811 812 813 814 815 816 818 819 820 821 822 822 823 823 824 825 826 827 827 828 829 829 830 831 831 832 832 833 833 834 834 834 834 834 835 835 835 834 834 834 834 834 834 834 834 834 835 835 835 836 836 837 837 837 838 838 838 838 839 839 839 840 839
778 782 785 787 788 790 791 792 793 794 795 797 799 801 803 804 806 807 808 810 811 812 812 813 814 815 816 817 818 819 821 822 823 823 824 824 825 826 826 827 828 829 829 830 831 831 832 832 833 834 834 834 835 835 835 835 836 836 836 835 835 834 834 835 835 835 835 836 836 836 837 837 838 838 838 839 839 840 840 840 840 841 842 841 840
779 782 785 788 789 790 791 793 794 795 796 798 800 802 804 805 807 808 810 811 812 813 814 815 815 816 817 818 819 820 821 822 823 824 825 825 826 827 827 828 829 830 830 831 832 832 833 833 834 834 835 835 836 836 836 837 837 837 837 837 836 836 836 836 837 837 837 837 838 838 838 839 839 840 840 840 841 841 842 842 842 842 844 843 842
779 782 786 789 790 791 792 793 795 796 797 799 801 803 805 806 808 809 811 812 813 814 815 816 816 817 818 819 820 821 822 823 824 824 825 826 827 827 828 828 829 831 831 832 833 833 834 834 835 835 836 836 836 837 837 838 838 838 838 838 838 837 837 837 838 839 839 839 839 840 840 841 841 842 842 842 843 843 843 844 844 844 845 844 843
780 783 786 789 791 792 793 794 796 797 799 800 802 804 806 807 809 810 811 813 814 815 816 817 817 818 818 819 821 822 823 824 825 825 826 827 827 828 829 830 831 832 833 833 834 834 835 835 836 836 836 837 837 838 838 839 839 839 839 839 839 839 839 839 839 840 840 840 841 842 842 843 843 844 844 844 844 844 845 845 845 846 846 845 844
781 784 787 789 792 793 794 795 797 798 799 801 803 805 806 808 809 811 812 814 815 816 817 818 818 819 819 820 821 822 823 824 825 826 827 828 828 829 830 831 832 833 834 834 835 835 836 836 836 837 837 838 838 839 839 840 840 840 840 840 841 840 840 840 840 841 841 842 843 844 844 844 845 845 845 845 845 845 846 846 846 847 846 846 846
783 785 788 790 792 794 795 796 798 799 800 802 804 806 807 809 810 811 813 814 816 817 818 818 819 820 820 821 822 823 824 825 826 827 828 829 829 830 831 832 833 834 834 835 836 836 837 837 838 838 838 839 839 839 840 840 840 840 841 841 842 841 841 842 842 842 842 843 844 845 845 846 846 847 847 846 847 847 847 847 847 848 848 848 848
784 786 788 791 792 794 795 797 798 799 801 802 804 806 808 809 811 812 813 815 816 817 818 819 820 821 821 822 823 824 825 826 827 828 829 829 830 831 832 833 834 835 835 836 836 837 837 838 838 839 839 839 840 840 840 841 841 841 842 842 842 842 843 843 843 843 844 844 845 846 846 847 848 848 848 848 848 848 848 849 849 849 849 849 849
785 787 789 791 793 794 796 797 799 800 802 803 805 807 808 810 811 812 814 815 816 818 819 820 821 822 822 823 824 825 826 827 828 829 830 831 831 832 833 833 834 835 836 836 837 837 838 838 839 839 840 840 840 840 841 841 841 842 842 843 843 843 843 844 844 845 845 846 846 847 847 848 848 849 849 849 849 849 849 849 850 850 851 850 850
785 788 790 792 793 795 796 798 799 801 803 804 806 807 809 810 812 813 814 815 817 818 820 821 822 822 823 824 825 826 827 828 829 830 831 832 832 833 834 834 835 836 836 837 837 838 838 839 839 840 840 840 841 841 841 842 842 842 843 843 844 844 844 844 845 846 846 847 847 848 848 849 849 850 850 850 850 850 850 850 851 851 851 851 851
786 789 791 793 794 795 797 798 800 801 803 805 806 808 809 811 812 813 814 816 817 819 820 821 822 823 824 825 826 827 828 828 829 831 832 832 833 834 834 835 836 836 837 837 838 839 839 839 840 840 841 841 841 841 841 842 843 843 844 844 844 844 845 845 846 847 847 848 848 849 850 850 851 851 851 851 851 851 851 851 852 852 852 852 852
787 789 791 793 794 796 797 798 800 802 804 805 807 808 810 811 812 813 815 816 818 820 821 822 822 823 824 825 826 827 828 829 830 831 832 833 834 834 835 836 836 837 837 838 839 839 840 841 841 841 841 842 842 842 842 842 843 844 844 844 845 845 845 846 847 847 848 848 849 850 851 851 852 852 853 853 852 852 852 852 853 853 853 853 853
787 790 792 794 796 797 798 799 801 802 804 806 808 809 810 811 812 814 815 817 819 820 821 822 823 824 825 826 827 828 829 830 831 832 833 834 835 835 836 836 836 837 838 838 839 840 841 841 842 842 842 842 842 842 842 842 843 844 844 845 845 846 846 846 847 848 849 850 850 851 851 852 853 853 854 854 854 854 854 854 854 854 854 854 854
787 789 792 794 797 799 800 800 801 803 804 806 808 809 811 812 813 814 816 818 819 820 822 823 823 825 826 827 828 829 830 831 832 833 834 835 836 836 836 837 837 838 838 839 840 841 842 842 842 842 843 843 843 843 843 843 844 845 845 846 846 847 847 847 848 849 850 851 852 852 853 853 854 855 855 856 855 855 855 855 855 855 855 855 855
788 790 793 795 797 799 801 802 803 804 805 807 808 810 811 812 814 815 816 818 819 821 822 823 824 825 826 827 829 830 831 832 833 834 835 835 836 836 837 838 838 839 839 840 841 842 842 843 843 843 843 844 844 844 844 844 844 845 846 846 847 848 848 848 849 850 851 852 853 854 854 855 855 856 856 857 857 856 856 856 856 856 856 856 856
790 791 793 796 798 799 801 803 804 805 806 808 809 810 812 813 814 815 817 818 820 821 822 824 825 826 827 828 829 831 831 832 833 834 835 836 836 837 837 838 839 840 840 841 842 842 843 844 844 845 845 845 845 845 845 845 845 846 847 847 848 849 849 849 850 851 852 853 854 855 856 856 856 857 857 858 858 858 857 857 857 857 857 857 857
791 792 794 796 798 800 802 804 805 806 808 809 810 811 812 813 814 816 818 819 821 822 823 824 825 826 827 828 830 831 832 833 834 835 835 836 837 837 838 839 840 841 841 842 842 843 844 844 845 846 846 846 846 846 846 846 846 847 847 848 849 850 850 850 851 852 853 854 855 856 856 857 857 857 858 858 859 859 858 858 858 858 858 858 858
791 793 794 796 798 800 802 804 805 807 808 809 811 812 813 814 815 817 818 820 822 823 824 825 826 827 828 829 830 831 832 833 834 835 836 836 837 838 838 839 840 841 842 842 843 843 844 845 846 846 847 847 847 847 847 847 847 848 848 849 850 850 851 851 852 853 854 855 856 857 857 857 858 859 859 859 859 860 860 859 859 859 859 859 859
792 793 795 797 798 800 801 803 805 806 808 809 811 812 814 815 816 818 819 821 822 824 825 825 826 827 828 829 830 832 833 834 835 836 836 837 838 839 839 840 841 841 842 842 843 843 844 845 846 847 848 848 848 849 848 848 848 849 849 850 851 851 852 853 854 854 855 856 857 858 858 859 859 860 860 860 860 860 861 861 861 860 860 860 860
792 793 795 796 798 799 801 803 804 806 808 810 811 813 815 816 818 819 821 822 823 824 825 826 827 828 829 830 831 832 833 834 836 837 837 838 839 839 840 840 841 842 842 842 843 844 845 845 846 847 848 849 849 850 850 849 849 850 850 851 852 853 853 854 855 855 856 857 859 859 859 860 860 861 861 861 861 861 862 862 862 862 862 861 861
791 793 795 796 797 799 801 803 804 806 808 810 812 814 816 817 819 820 821 822 823 824 825 826 827 828 829 830 831 832 833 835 836 837 838 839 839 840 840 841 841 842 843 843 844 844 845 846 846 847 848 849 850 850 851 851 850 851 851 852 853 854 855 855 856 857 858 859 860 860 860 861 861 861 862 862 862 862 862 863 863 863 863 862 862
791 792 794 795 797 799 801 803 804 807 809 811 812 814 816 817 819 820 821 823 824 825 826 826 827 828 829 830 831 832 834 835 836 837 838 839 840 841 841 842 842 843 843 844 844 845 845 846 846 847 848 849 850 851 851 851 851 852 853 854 855 855 856 857 858 859 859 860 861 861 862 862 862 862 863 863 863 863 863 864 864 864 863 863 863
790 792 794 796 797 799 801 803 805 807 809 810 812 814 816 818 819 820 822 823 824 825 826 826 827 828 830 831 832 833 835 836 837 838 839 840 841 841 842 843 843 844 844 845 845 845 846 847 847 848 849 850 851 851 852 852 852 853 853 855 855 856 857 858 859 860 860 861 862 862 863 863 863 863 863 864 864 864 864 864 864 864 864 864 864
790 792 794 795 797 799 801 803 805 807 809 810 812 815 816 818 819 820 822 823 824 825 826 827 828 829 830 831 833 834 835 836 838 839 840 840 841 842 843 843 844 844 845 845 846 846 846 847 848 848 849 850 851 852 852 852 852 853 854 855 856 857 858 858 859 861 861 862 863 863 864 864 864 864 864 865 865 865 865 865 865 865 865 865 865
789 791 793 795 797 799 801 803 805 807 809 811 813 815 817 818 819 820 822 823 824 825 826 827 828 830 831 832 833 834 836 837 838 839 840 841 842 843 843 844 844 845 845 846 846 846 847 848 848 849 850 851 852 852 852 852 853 853 854 855 856 858 859 859 860 861 862 863 863 863 864 864 865 865 865 865 865 865 865 865 866 866 866 866 866
786 789 791 794 796 799 802 804 806 807 809 811 813 815 817 818 819 821 822 823 824 825 826 828 829 830 831 832 834 835 836 837 838 839 840 841 842 842 843 844 844 845 845 846 846 847 847 848 849 849 850 851 852 852 853 853 853 854 855 856 857 858 859 860 861 862 862 863 864 864 865 865 865 866 866 866 866 866 866 866 866 866 867 867 867
784 787 790 793 795 799 801 804 806 808 810 812 814 816 817 818 820 821 822 823 824 825 827 828 829 830 831 833 834 835 836 838 839 839 840 841 842 842 843 844 845 845 846 846 847 847 848 848 849 850 850 851 852 852 853 854 854 855 855 856 858 858 859 860 861 862 863 863 864 865 865 866 866 866 867 867 867 867 867 867 867 867 867 867 867
784 785 788 792 795 798 800 803 805 808 810 812 814 816 817 818 820 821 822 823 824 826 827 828 829 830 832 833 834 835 836 838 839 840 841 841 842 843 843 844 845 845 846 847 847 848 848 849 850 850 851 851 852 852 853 854 854 855 856 857 858 859 860 861 861 862 863 864 865 865 866 866 867 867 867 867 867 868 868 868 868 868 868 868 868
786 786 789 792 795 798 800 802 805 808 810 812 814 815 817 818 819 821 822 823 825 826 827 828 829 831 832 833 835 836 837 838 839 840 841 842 842 843 844 844 845 845 846 847 847 848 848 849 850 851 851 851 851 852 853 854 855 855 856 857 858 859 860 861 862 863 863 864 865 866 867 867 868 868 868 868 868 868 868 869 868 868 868 868 868
788 789 790 793 795 797 799 803 806 808 810 811 813 815 816 818 820 821 822 823 825 826 827 828 829 831 832 833 835 836 837 838 839 840 841 842 842 843 844 844 845 845 846 847 847 848 848 849 850 851 851 851 851 852 853 854 854 855 856 857 858 859 860 861 862 863 864 865 866 867 867 868 868 868 868 868 869 869 869 869 869 869 870 870 869
791 792 792 794 796 798 801 804 807 809 810 811 813 814 816 818 820 821 822 823 825 826 827 828 829 831 832 834 835 837 838 838 839 840 841 842 843 843 844 844 845 845 846 846 847 848 848 849 850 850 851 851 852 853 853 854 855 855 856 857 858 859 860 861 862 863 864 865 866 867 868 868 868 869 869 869 869 870 870 870 870 870 871 871 870
791 793 793 795 797 800 803 805 807 808 809 811 813 815 817 819 820 821 823 824 825 826 827 828 830 831 832 834 835 836 837 838 839 840 841 842 842 843 844 844 845 845 846 846 847 848 848 849 850 850 851 852 852 853 854 854 855 856 857 858 859 859 860 861 863 864 865 866 867 868 868 869 869 869 870 870 870 870 870 871 871 871 871 872 871
790 792 792 795 799 801 804 806 807 808 810 812 813 815 817 819 820 821 823 824 825 826 827 829 830 831 833 834 835 836 837 838 839 840 841 841 842 843 843 844 845 845 846 846 847 848 849 849 850 851 851 852 853 854 854 855 856 857 858 858 859 859 860 862 863 864 865 866 867 868 869 869 870 870 870 871 871 871 871 871 871 871 872 872 872
793 792 791 795 799 801 804 806 808 810 811 812 814 815 817 818 820 821 822 824 825 826 828 829 830 831 833 834 835 836 837 838 839 840 841 841 842 842 843 844 844 845 846 846 847 848 849 849 850 851 851 852 853 854 855 856 856 857 857 858 859 860 861 862 863 865 865 866 867 868 870 870 871 871 871 871 871 871 872 872 872 872 872 872 872
795 795 795 796 797 798 801 804 807 810 811 813 815 816 817 818 819 821 822 823 825 826 828 829 830 831 832 833 834 835 837 838 839 840 840 841 841 842 842 843 844 845 845 846 847 848 848 849 850 851 851 852 853 854 855 856 857 857 858 858 860 860 861 862 863 865 865 866 867 868 869 871 871 871 871 872 872 872 872 872 872 872 873 873 873
792 794 795 796 796 798 800 801 804 808 810 812 814 815 817 818 819 821 822 823 825 826 828 829 830 831 832 833 834 835 836 837 838 839 840 840 840 841 842 843 844 844 845 846 847 847 848 849 850 851 852 853 854 854 855 856 857 857 858 859 860 861 862 863 864 865 865 866 867 868 869 871 872 872 872 872 873 873 873 873 873 873 873 873 873
783 788 789 792 794 796 798 799 801 805 808 810 813 814 816 818 819 821 822 823 825 826 827 829 830 831 831 832 833 834 836 837 838 839 839 839 840 841 841 842 843 844 845 846 846 847 848 849 850 851 852 853 854 855 856 857 858 858 859 861 861 862 862 863 864 865 865 866 867 868 870 871 871 872 873 873 874 874 874 874 874 874 874 874 874
774 781 784 787 788 790 793 796 799 802 806 809 811 813 816 818 819 820 821 823 824 825 827 828 829 830 831 832 833 834 835 836 837 838 839 839 839 840 841 842 843 844 844 845 846 847 848 849 850 851 852 853 854 855 856 857 858 859 860 861 862 862 862 864 864 864 865 866 867 868 869 870 871 872 873 873 874 875 875 875 875 875 874 874 873
772 775 779 782 783 784 789 793 797 801 804 807 810 812 815 817 818 819 821 822 823 825 826 827 829 829 830 831 832 833 835 836 837 838 838 838 839 839 840 842 842 843 844 844 845 846 847 848 850 851 852 853 854 855 856 858 859 860 862 862 863 862 862 864 864 864 865 867 867 868 869 870 871 871 872 873 874 874 874 875 875 875 874 874 873
775 776 777 780 783 785 788 792 796 800 803 805 808 811 813 816 817 818 820 821 822 824 825 827 828 829 829 831 831 833 834 835 836 837 838 838 838 839 840 841 842 843 844 844 845 846 847 848 850 851 852 853 854 856 857 858 859 860 862 863 864 864 864 864 864 865 866 867 867 868 868 869 870 871 871 872 873 873 874 875 875 875 874 874 873
775 777 779 782 784 785 789 792 796 799 801 804 807 809 812 814 815 817 819 820 822 823 825 826 827 828 829 830 831 832 833 834 835 836 837 838 838 839 840 841 842 843 843 844 845 846 847 848 850 851 852 854 855 856 857 858 859 860 862 864 865 866 866 865 866 867 867 867 867 867 867 869 870 870 871 872 872 873 874 875 875 874 874 874 873
775 777 779 781 784 786 789 792 795 798 801 803 806 809 811 812 814 816 817 819 821 822 824 825 826 828 829 830 831 832 833 834 835 836 837 838 838 839 840 841 842 843 843 844 845 846 847 848 850 851 852 854 855 857 857 858 859 860 861 863 864 866 867 867 867 867 867 867 867 867 868 869 870 871 871 872 872 873 874 874 874 874 874 873 873
774 777 779 781 783 786 788 791 794 797 800 802 805 808 810 812 814 815 817 818 820 822 823 825 826 827 829 830 831 832 833 834 835 836 836 837 838 838 839 840 842 843 843 844 845 846 847 848 850 851 852 854 855 857 857 858 859 860 860 862 864 865 867 868 868 868 868 868 868 868 869 870 871 872 872 872 872 873 874 875 874 874 874 874 874
773 776 779 780 782 785 787 790 793 795 798 801 804 807 809 811 813 814 816 818 820 822 823 824 825 827 828 829 831 831 832 833 834 835 836 837 837 838 839 840 841 842 843 844 845 846 847 848 849 851 852 853 855 856 858 858 859 859 859 860 862 863 864 866 867 869 869 869 869 869 870 871 871 872 872 872 873 874 875 875 875 875 875 875 875
772 775 778 780 781 783 786 789 792 795 797 800 802 805 807 809 810 812 814 817 819 820 822 823 825 826 828 829 830 831 832 833 834 835 836 836 837 837 839 840 841 842 843 844 845 846 847 848 849 850 852 853 854 856 857 858 859 859 859 859 860 860 861 864 865 868 870 870 870 870 870 871 872 872 872 872 873 874 875 875 875 875 876 876 876
772 774 777 780 781 783 785 788 791 794 796 799 801 803 806 808 809 811 813 815 817 819 821 823 824 825 827 828 830 831 832 833 834 835 835 836 836 837 838 839 841 842 842 843 845 846 847 848 849 850 851 852 854 855 856 857 858 859 859 859 859 859 860 861 862 865 869 870 870 870 871 871 871 872 872 873 874 875 875 876 876 876 877 877 877
771 774 776 779 780 782 785 787 790 793 795 797 800 802 804 807 809 811 813 815 816 819 821 822 824 825 826 828 829 830 831 832 833 834 835 836 836 837 838 839 840 841 842 843 844 845 846 847 848 849 851 852 853 854 855 856 858 859 859 860 860 860 861 861 861 862 864 868 871 870 871 871 872 872 873 874 875 875 876 877 877 877 878 878 879
770 772 775 777 779 782 784 786 789 792 794 797 799 801 804 806 809 811 812 814 816 818 820 822 824 825 826 827 828 829 830 831 833 834 835 836 836 837 838 839 840 841 842 843 844 845 846 847 848 849 850 851 852 853 855 856 857 858 859 860 860 861 861 862 862 862 862 865 869 870 871 872 873 874 874 875 876 876 877 877 878 878 879 879 880
769 772 774 777 779 781 784 786 788 791 794 796 798 801 804 806 808 809 811 813 816 818 820 822 824 825 826 827 828 829 830 831 832 834 835 835 836 837 838 839 840 841 842 843 844 845 846 847 848 849 850 851 852 853 854 855 856 857 858 859 860 861 861 861 862 863 863 863 866 870 871 872 873 875 876 876 876 877 877 878 878 879 880 881 881
769 771 773 776 779 781 783 786 788 790 793 795 798 800 803 805 807 809 811 813 815 817 819 821 823 824 825 827 828 829 830 831 832 833 834 835 836 837 838 839 840 841 842 843 843 844 845 846 847 848 849 850 851 852 854 854 855 856 857 858 859 860 860 861 861 862 862 863 865 869 871 872 873 875 876 877 877 878 878 879 879 880 881 881 882